Home > Weather > Kirkenes > Past weeks

Flag for Norway Past Weather in Kirkenes, Norway — Yesterday and Last 2 Weeks

Now
59 °F

Refreshingly cool.


Feels Like: 57 °F
Forecast: 44 / 54 °F
Wind: 9 mph from Southwest

Location: Kirkenes Lufthavn

Current Time: May 28, 2016 at 6:06:28 AM

Latest Report: May 28, 2016 at 5:00 AM


Visibility: N/A

Pressure: 30.24 "Hg

Humidity: 43%

Dew Point: 36 °F

Location of KirkenesLocation

Past Weather in Kirkenes — Graph

°F

Kirkenes Temperature Yesterday

Maximum temperature yesterday: 65 °F (at 7:00 PM)
Minimum temperature yesterday: 42 °F (at 2:00 AM)
Average temperature yesterday: 57 °F

High & Low Weather Summary for the Past Weeks

 TemperatureHumidityPressure
High69 °F (May 23, 5:00 PM)100% (May 23, 1:00 AM)30.31 "Hg (May 23, 1:00 AM)
Low35 °F (May 16, 4:00 AM)20% (May 19, 3:00 PM)29.29 "Hg (May 17, 2:00 PM)
Average48 °F67%29.88 "Hg
* Reported May 13 5:00 AM — May 28 5:00 AM, Kirkenes, Weather by CustomWeather, © 2016

Note: Actual official high and low records may vary slightly from our data, if they occured in-between our weather recording intervals... More about our weather records

Advertising

Kirkenes Weather History for the Previous 24 Hours

Scroll right to see more
 ConditionsComfort  
Time TempWeatherWind HumidityBarometerVisibility
5:00 AM
Sat, May 28
59 °FRefreshingly cool.9 mph43%30.24 "HgN/A
4:00 AM58 °FRefreshingly cool.9 mph44%30.24 "HgN/A
3:00 AM58 °FRefreshingly cool.9 mph43%30.24 "HgN/A
2:00 AM57 °FRefreshingly cool.8 mph45%30.25 "HgN/A
1:00 AM59 °FRefreshingly cool.8 mph40%30.25 "HgN/A
12:00 AM60 °FRefreshingly cool.8 mph38%30.25 "HgN/A
11:00 PM
Fri, May 27
61 °FRefreshingly cool.7 mph37%30.26 "HgN/A
10:00 PM61 °FRefreshingly cool.6 mph40%30.26 "HgN/A
9:00 PM62 °FRefreshingly cool.6 mph38%30.25 "HgN/A
8:00 PM63 °FMild.7 mph35%30.26 "HgN/A
7:00 PM65 °FMild.7 mph32%30.26 "HgN/A
6:00 PM65 °FMild.6 mph33%30.26 "HgN/A
5:00 PM64 °FMild.6 mph32%30.27 "HgN/A
4:00 PM64 °FMild.6 mph33%30.27 "HgN/A
3:00 PM64 °FMild.6 mph33%30.28 "HgN/A
2:00 PM64 °FMild.8 mph32%30.28 "HgN/A
1:00 PM61 °FRefreshingly cool.7 mph34%30.29 "HgN/A
12:00 PM61 °FRefreshingly cool.7 mph35%30.30 "HgN/A
11:00 AM60 °FRefreshingly cool.7 mph38%30.30 "HgN/A
10:00 AM60 °FRefreshingly cool.8 mph39%30.30 "HgN/A
9:00 AM58 °FRefreshingly cool.8 mph40%30.30 "HgN/A
8:00 AM56 °FRefreshingly cool.8 mph43%30.29 "HgN/A
7:00 AM55 °FCool.7 mph46%30.29 "HgN/A
6:00 AM53 °FCool.7 mph50%30.30 "HgN/A
Weather by CustomWeather, © 2016

See weather overviewHow to use our weather pages